This is the latest recevied weather packets stored in our database for station/object R1CBW-13. If no packets are shown the sender has not sent any weather packets the latest 10 day(s).
| Time | Temp. | Humidity | Pressure | Rain* | Wind** | Luminosity | Snow |
|---|---|---|---|---|---|---|---|
| 1777290193 | 6.11° C | 38% | 1004.7 hPa | 0 mm | - | - | - |
| 1777290133 | 6.67° C | 39% | 1004.5 hPa | 0 mm | - | - | - |
| 1777290073 | 6.67° C | 39% | 1005 hPa | 0 mm | - | - | - |
| 1777290013 | 6.67° C | 39% | 1004.7 hPa | 0 mm | - | - | - |
| 1777289953 | 6.67° C | 40% | 1004.5 hPa | 0 mm | - | - | - |
| 1777289893 | 6.67° C | 39% | 1004.6 hPa | 0 mm | - | - | - |
| 1777289833 | 6.67° C | 40% | 1004.4 hPa | 0 mm | - | - | - |
| 1777289773 | 6.67° C | 40% | 1004.6 hPa | 0 mm | - | - | - |
| 1777289713 | 6.11° C | 39% | 1004.5 hPa | 0 mm | - | - | - |
| 1777289653 | 5.56° C | 39% | 1004.8 hPa | 0 mm | - | - | - |
| 1777289593 | 5.56° C | 39% | 1004.7 hPa | 0 mm | - | - | - |
| 1777289533 | 5° C | 39% | 1004.9 hPa | 0 mm | - | - | - |
| 1777289473 | 6.11° C | 39% | 1004.8 hPa | 0 mm | - | - | - |
| 1777289413 | 6.11° C | 40% | 1004.9 hPa | 0 mm | - | - | - |
| 1777289353 | 6.67° C | 41% | 1004.6 hPa | 0 mm | - | - | - |
| 1777289293 | 6.67° C | 43% | 1004.5 hPa | 0 mm | - | - | - |
| 1777289233 | 6.11° C | 41% | 1004.6 hPa | 0 mm | - | - | - |
| 1777289173 | 6.67° C | 41% | 1004.6 hPa | 0 mm | - | - | - |
| 1777289113 | 6.11° C | 42% | 1004.6 hPa | 0 mm | - | - | - |
| 1777289053 | 5.56° C | 43% | 1004.6 hPa | 0 mm | - | - | - |
| 1777288993 | 5.56° C | 43% | 1004.6 hPa | 0 mm | - | - | - |
| 1777288933 | 5.56° C | 43% | 1004.5 hPa | 0 mm | - | - | - |
| 1777288873 | 5.56° C | 42% | 1004.4 hPa | 0 mm | - | - | - |
| 1777288813 | 6.11° C | 43% | 1004.8 hPa | 0 mm | - | - | - |
| 1777288753 | 6.11° C | 42% | 1004.8 hPa | 0 mm | - | - | - |
* Rain latest hour (hover to see other rain measurements)
** Current wind speed in m/s (hover to see current wind gust speed)